Weather History for Alpena, MI

Change the Weather History Date:

Saturday, December 15, 2012

  Actual Average Record
Temperature  
Mean Temperature 35 °F 25 °F  
Max Temperature 38 °F 32 °F 59 °F (1997)
Min Temperature 31 °F 19 °F -7 °F (1917)
Degree Days  
Heating Degree Days 30 40  
Month to date heating degree days 475 563  
Since 1 July heating degree days 2176 2386  
Moisture  
Dew Point 33 °F    
Average Humidity 84    
Maximum Humidity 92    
Minimum Humidity 75    
Precipitation  
Precipitation 0.26 in 0.05 in 1.19 in (1971)
Month to date precipitation 1.55 0.91  
Year to date precipitation 26.60 27.32  
Snow  
Snow 0.00 in 0.70 in 8.40 in (2005)
Month to date snowfall 5.3 8.9  
Since 1 July snowfall 7.5 17.0  
Snow Depth 3.00 in    
Sea Level Pressure  
Sea Level Pressure 30.01 in    
Wind  
Wind Speed 11 mph (SE)    
Max Wind Speed 22 mph    
Max Gust Speed 31 mph    
Visibility 8 miles    
Events Rain    
T = Trace of Precipitation, MM = Missing Value Source: NWS Daily Summary

Daily Weather History Graph

Daily Weather History Graph

Search for Another Location

Airport:

Trip Planner

Search our weather history database for the weather conditions in past years. The results will help you decide how hot, cold, wet, or windy it might be!

Date:

Astronomy

Dec. 15, 2012 Rise Set
Actual Time 8:06 AM EST 4:53 PM EST
Civil Twilight 7:32 AM EST 5:26 PM EST
Nautical Twilight 6:55 AM EST 6:04 PM EST
Astronomical Twilight 6:19 AM EST 6:40 PM EST
Moon 9:53 AM EST (12/15) 8:01 PM EST (12/15)
Length of Visible Light 9h 54m
Length of Day
8h 46m
Waxing Crescent, 8% of the Moon is Illuminated
Dec 15
Waxing Crescent
Dec 20
First Quarter
Dec 28
Full
Jan 4
Last Quarter
Jan 11
New

Hourly Weather History & Observations

Time (EST) Temp. Windchill Dew Point Humidity Pressure Visibility Wind Dir Wind Speed Gust Speed Precip Events Conditions
12:54 AM 32.0 °F - 27.0 °F 82% 30.25 in 10.0 mi Calm Calm - N/A   Overcast
1:54 AM 32.0 °F 28.7 °F 28.0 °F 85% 30.25 in 10.0 mi ESE 3.5 mph - N/A   Overcast
2:54 AM 33.1 °F 28.7 °F 28.0 °F 82% 30.23 in 10.0 mi SE 4.6 mph - N/A   Overcast
3:54 AM 33.1 °F 27.7 °F 28.0 °F 82% 30.22 in 10.0 mi ESE 5.8 mph - N/A   Overcast
4:54 AM 35.1 °F 29.3 °F 28.9 °F 78% 30.22 in 10.0 mi ESE 6.9 mph - N/A   Overcast
5:54 AM 35.1 °F 27.9 °F 30.0 °F 82% 30.21 in 10.0 mi ESE 9.2 mph 18.4 mph N/A   Overcast
6:54 AM 35.1 °F 27.9 °F 30.0 °F 82% 30.20 in 10.0 mi ESE 9.2 mph - N/A   Overcast
7:06 AM 35.6 °F 28.0 °F 30.2 °F 81% 30.18 in 10.0 mi ESE 10.4 mph - N/A   Overcast
7:54 AM 35.1 °F 27.9 °F 30.0 °F 82% 30.20 in 10.0 mi ESE 9.2 mph - N/A   Overcast
8:54 AM 35.1 °F 27.9 °F 30.9 °F 85% 30.18 in 10.0 mi ESE 9.2 mph - N/A   Overcast
9:54 AM 36.0 °F 28.0 °F 30.9 °F 82% 30.15 in 10.0 mi ESE 11.5 mph - N/A   Overcast
10:54 AM 37.0 °F 30.4 °F 32.0 °F 82% 30.13 in 7.0 mi SE 9.2 mph 19.6 mph N/A   Overcast
11:54 AM 37.0 °F 28.9 °F 32.0 °F 82% 30.07 in 7.0 mi ESE 12.7 mph 23.0 mph N/A   Overcast
12:10 PM 37.4 °F 29.8 °F 33.8 °F 87% 30.04 in 6.0 mi ESE 11.5 mph - N/A   Overcast
12:54 PM 37.0 °F 28.1 °F 33.1 °F 86% 30.05 in 5.0 mi SE 15.0 mph 21.9 mph N/A   Overcast
1:54 PM 37.0 °F 28.9 °F 34.0 °F 89% 30.02 in 5.0 mi SE 12.7 mph - N/A   Overcast
2:54 PM 37.9 °F 30.9 °F 34.0 °F 86% 29.98 in 5.0 mi SE 10.4 mph - N/A   Overcast
3:54 PM 37.9 °F 30.5 °F 35.1 °F 89% 29.97 in 5.0 mi ESE 11.5 mph - 0.00 in Rain Light Rain
4:12 PM 37.4 °F 29.8 °F 35.6 °F 93% 29.93 in 5.0 mi ESE 11.5 mph - 0.00 in   Overcast
4:38 PM 37.4 °F 28.9 °F 35.6 °F 93% 29.93 in 5.0 mi SE 13.8 mph - 0.00 in   Overcast
4:54 PM 37.9 °F 29.6 °F 35.1 °F 89% 29.94 in - SE 13.8 mph 23.0 mph 0.00 in Rain Light Rain
5:06 PM 37.4 °F 29.3 °F 35.6 °F 93% 29.91 in - SE 12.7 mph 21.9 mph 0.01 in Rain Light Rain
5:54 PM 37.9 °F 30.5 °F 35.1 °F 89% 29.90 in - SE 11.5 mph - 0.02 in Rain Light Rain
6:24 PM 37.4 °F 28.9 °F 35.6 °F 93% 29.86 in - SE 13.8 mph 21.9 mph 0.00 in   Overcast
6:35 PM 37.4 °F 29.3 °F 35.6 °F 93% 29.84 in - SE 12.7 mph 21.9 mph 0.00 in   Overcast
6:54 PM 37.0 °F 28.9 °F 35.1 °F 93% 29.86 in - SE 12.7 mph - 0.00 in Rain Light Rain
7:06 PM 37.4 °F 29.8 °F 35.6 °F 93% 29.84 in - SE 11.5 mph 18.4 mph 0.00 in Rain Light Rain
7:15 PM 37.4 °F 28.5 °F 35.6 °F 93% 29.84 in - SE 15.0 mph - 0.00 in Rain Light Rain
7:27 PM 37.4 °F 29.3 °F 35.6 °F 93% 29.84 in - SE 12.7 mph - 0.02 in Rain Light Rain
7:54 PM 37.9 °F 28.2 °F 35.1 °F 89% 29.86 in - SE 18.4 mph 26.5 mph 0.05 in Rain Light Rain
8:54 PM 37.0 °F 28.5 °F 36.0 °F 96% 29.81 in - SE 13.8 mph 21.9 mph 0.02 in Rain Light Rain
9:54 PM 37.9 °F 29.6 °F 36.0 °F 93% 29.78 in - ESE 13.8 mph 26.5 mph 0.03 in Rain Light Rain
10:54 PM 37.0 °F 26.7 °F 35.1 °F 93% 29.76 in - ESE 19.6 mph 29.9 mph 0.06 in Rain Light Rain
11:01 PM 37.4 °F 27.2 °F 35.6 °F 93% 29.73 in - SE 19.6 mph 29.9 mph 0.01 in Rain Light Rain
11:54 PM 37.9 °F 30.0 °F 36.0 °F 93% 29.73 in - SE 12.7 mph - 0.07 in Rain Light Rain